Weather History for Lowell, ID

Change the Weather History Date:

Friday, April 11, 2014

  Actual Average Record
Temperature  
Mean Temperature 52 °F -  
Max Temperature 71 °F 56 °F 75 °F (2004)
Min Temperature 34 °F 35 °F 28 °F (1999)
Degree Days  
Heating Degree Days 12    
Growing Degree Days 2 (Base 50)    
Moisture  
Dew Point 37 °F    
Average Humidity 66    
Maximum Humidity 93    
Minimum Humidity 27    
Precipitation  
Precipitation 0.00 in - - ()
Sea Level Pressure  
Sea Level Pressure 29.99 in    
Wind  
Wind Speed 3 mph (North)    
Max Wind Speed 8 mph    
Max Gust Speed -    
Averages and records for this station are not official NWS values.
T = Trace of Precipitation, MM = Missing Value Source: NWS Daily Summary

Daily Weather History Graph

Daily Weather History Graph

Search for Another Location

Airport:

Trip Planner

Search our weather history database for the weather conditions in past years. The results will help you decide how hot, cold, wet, or windy it might be!

Date:

Astronomy

Apr. 11, 2014 Rise Set
Actual Time 7:03 AM MDT 8:24 PM MDT
Civil Twilight 6:32 AM MDT 8:55 PM MDT
Nautical Twilight 5:54 AM MDT 9:33 PM MDT
Astronomical Twilight 5:14 AM MDT 10:13 PM MDT
Moon 4:58 PM MDT (4/11) 5:12 AM MDT (4/11)
Length of Visible Light 14h 23m
Length of Day
13h 21m
Waxing Gibbous, 87% of the Moon is Illuminated
Apr 11
Waxing Gibbous
Apr 15
Full
Apr 22
Last Quarter
Apr 29
New
May 6
First Quarter

Hourly Weather History & Observations

Time (MDT) Temp. Windchill Dew Point Humidity Pressure Visibility Wind Dir Wind Speed Gust Speed Precip Events Conditions
12:52 AM 42.1 °F 39.2 °F 37.9 °F 85% 30.08 in - North 4.6 mph - N/A   Unknown
1:52 AM 41.0 °F 38.0 °F 37.0 °F 86% 30.08 in - NNW 4.6 mph - N/A   Unknown
2:52 AM 39.0 °F 35.7 °F 36.0 °F 89% 30.10 in - NW 4.6 mph - N/A   Unknown
3:52 AM 37.9 °F - 35.1 °F 89% 30.09 in - Calm Calm - N/A   Unknown
4:52 AM 37.0 °F 34.5 °F 34.0 °F 89% 30.09 in - NNW 3.5 mph - N/A   Unknown
5:52 AM 36.0 °F 33.3 °F 34.0 °F 93% 30.10 in - NNW 3.5 mph - N/A   Unknown
6:52 AM 35.1 °F 32.2 °F 33.1 °F 92% 30.12 in - North 3.5 mph - N/A   Unknown
7:52 AM 34.0 °F - 32.0 °F 92% 30.14 in - Calm Calm - N/A   Unknown
8:52 AM 36.0 °F 33.3 °F 33.1 °F 89% 30.15 in - North 3.5 mph - N/A   Unknown
9:52 AM 42.1 °F 40.2 °F 34.0 °F 73% 30.11 in - North 3.5 mph - N/A   Unknown
10:52 AM 48.9 °F - 36.0 °F 61% 30.06 in - Calm Calm - N/A   Unknown
11:52 AM 55.0 °F - 36.0 °F 49% 30.02 in - Calm Calm - N/A   Unknown
12:52 PM 61.0 °F - 36.0 °F 39% 29.97 in - South 3.5 mph - N/A   Unknown
1:52 PM 66.0 °F - 34.0 °F 30% 29.92 in - SE 8.1 mph - N/A   Unknown
2:52 PM 70.0 °F - 36.0 °F 29% 29.89 in - Variable 4.6 mph - N/A   Unknown
3:52 PM 71.1 °F - 35.1 °F 27% 29.85 in - SE 6.9 mph - N/A   Unknown
4:52 PM 71.1 °F - 39.9 °F 32% 29.82 in - Calm Calm - N/A   Unknown
5:52 PM 66.9 °F - 37.9 °F 34% 29.81 in - Variable 4.6 mph - N/A   Unknown
6:52 PM 60.1 °F - 41.0 °F 49% 29.84 in - Variable 4.6 mph - N/A   Unknown
7:52 PM 55.0 °F - 43.0 °F 64% 29.88 in - Calm Calm - N/A   Unknown
8:52 PM 53.1 °F - 43.0 °F 69% 29.90 in - North 4.6 mph - N/A   Unknown
9:52 PM 51.1 °F - 42.1 °F 71% 29.91 in - Calm Calm - N/A   Unknown
10:52 PM 46.9 °F - 41.0 °F 80% 29.92 in - Calm Calm - N/A   Unknown
11:52 PM 45.0 °F - 39.9 °F 82% 29.93 in - Calm Calm - N/A   Unknown